Wind_Speed
24 24 23 24 25 25 26 26 27 27 27 28 29 30 30 30 29 27 26 24 23 23 21 18 18 19 19 17 19 20 20 16 16 17 20 18 17 18 17 13 11 15 16 15 15
27 26 26 25 24 24 25 25 25 26 27 27 27 29 30 30 27 27 26 25 22 21 20 19 18 18 19 17 18 19 19 17 17 18 22 22 19 19 18 13 17 17 18 17 15
29 29 28 28 26 24 23 24 24 23 25 26 26 27 28 30 28 26 26 23 21 22 21 20 19 17 18 16 17 22 19 15 14 17 21 22 24 23 21 15 25 21 21 23 19
30 30 29 30 29 28 27 25 24 24 23 24 24 27 28 29 25 22 23 22 22 23 23 23 23 20 23 21 18 24 19 15 14 15 14 21 27 33 27 21 30 30 28 29 27
28 30 31 32 33 32 31 30 30 29 27 27 25 25 28 33 23 22 25 24 22 24 24 25 23 21 24 27 23 26 26 20 17 13 10 13 23 34 22 15 26 31 32 31 31
27 29 31 31 32 32 33 31 32 30 30 26 24 25 28 37 30 24 26 24 24 25 23 22 22 21 25 27 24 27 27 26 23 16 17 17 22 29 32 18 25 27 33 32 30
30 28 27 27 27 28 29 30 31 31 30 27 25 26 30 35 33 29 27 26 26 26 27 27 28 26 29 31 28 30 27 31 35 30 19 13 24 28 29 26 26 30 30 30 31
29 31 33 31 27 30 31 28 28 27 29 31 31 29 35 40 35 33 33 31 27 27 27 28 27 24 30 35 33 31 30 29 40 36 27 23 24 34 29 32 33 38 36 35 32
34 33 33 34 34 31 33 31 31 28 28 26 28 30 39 41 42 36 31 32 34 32 35 36 33 34 36 37 30 33 29 33 34 43 32 21 27 38 34 31 36 40 41 40 40
38 39 38 39 36 35 35 32 32 31 33 32 31 33 35 45 46 42 42 42 36 32 34 35 33 35 45 45 36 36 33 27 29 45 33 23 25 34 40 38 39 42 45 44 40
44 46 46 46 43 43 39 39 39 36 38 40 39 38 40 40 42 48 52 45 42 46 46 42 40 45 47 44 42 43 35 28 33 37 27 27 23 30 38 40 47 47 48 47 47
49 49 49 49 47 47 47 45 45 44 46 45 47 45 44 44 41 45 49 49 46 44 48 48 47 54 54 52 48 45 39 40 37 37 33 31 31 36 34 42 46 49 54 55 55
53 55 53 51 51 49 50 50 50 51 49 54 55 50 50 50 49 55 56 54 54 54 55 52 51 53 58 59 58 57 53 53 45 47 42 38 34 40 42 44 44 46 54 55 59
58 59 60 59 57 59 55 54 54 56 55 51 53 55 55 57 55 60 63 63 59 58 62 58 56 51 52 57 65 56 53 59 60 51 51 59 45 48 50 54 48 53 59 55 59
67 66 66 65 65 64 63 62 57 60 59 60 53 61 64 58 59 66 69 67 71 72 63 65 65 70 71 61 58 57 72 64 59 60 57 49 49 43 53 55 62 64 58 60 63
67 67 66 66 68 64 64 63 65 63 57 62 71 73 71 75 71 69 70 73 63 66 73 80 77 70 73 75 74 71 70 66 65 61 57 67 60 59 55 54 61 64 59 57 63
77 72 75 74 72 75 70 67 67 64 63 68 74 69 74 77 78 76 76 70 81 79 79 79 77 80 82 80 82 83 85 83 83 75 73 77 74 67 77 73 74 79 80 71 70
84 82 81 82 83 84 84 85 76 75 80 81 86 82 79 83 90 93 83 76 77 88 91 84 79 91 87 87 86 87 89 93 96 93 91 88 86 83 82 87 89 94 93 88 87
88 85 91 92 90 96 93 92 94 92 93 88 91 93 92 96 90 97 95 87 89 90 94 93 88 89 95 98 98 97 97 103 106 105 112 102 93 97 91 92 97 97 100 100 100
98 104 102 103 103 104 102 98 103 106 102 98 100 99 99 104 103 102 104 99 94 96 103 109 108 101 104 105 106 107 110 109 113 115 117 114 111 96 92 103 104 110 109 108 111
103 102 105 111 110 109 107 105 107 106 106 110 108 114 104 105 109 111 112 110 104 111 116 122 125 116 120 117 119 125 121 120 121 124 125 123 114 98 103 105 111 116 120 120 116
111 110 113 114 115 115 116 114 116 120 120 120 113 114 118 120 118 121 121 123 123 127 128 131 136 135 127 125 127 132 133 131 133 131 130 135 132 116 112 115 118 119 121 124 125
122 121 121 119 118 120 117 118 121 119 124 124 124 122 124 128 129 127 129 130 133 135 137 138 139 143 139 134 136 137 133 132 128 131 129 129 133 131 129 131 123 117 125 123 121
129 133 133 128 126 127 128 128 127 122 127 130 131 134 137 133 137 136 139 138 135 140 145 149 150 151 148 148 139 144 142 143 137 138 137 139 135 128 130 134 134 130 127 125 126
132 137 138 136 134 136 134 133 137 137 137 136 139 142 143 142 142 140 139 141 140 140 135 132 129 126 126 125 126 117 120 115 114 124 134 130 142 143 148 146 140 142 136 138 141
138 135 139 139 134 137 141 131 139 143 140 136 137 134 135 136 132 129 125 127 126 119 121 123 120 119 117 116 118 113 107 107 115 118 124 124 120 126 125 128 131 134 138 137 138
142 143 145 144 140 139 140 138 132 133 132 125 128 126 125 126 124 121 119 119 118 114 116 119 120 120 119 119 122 110 107 115 116 114 121 120 119 117 116 115 116 116 120 124 125
Wind_Direction
266 266 271 269 269 269 270 270 272 274 274 272 273 274 275 277 280 283 284 287 284 283 284 295 298 301 307 311 312 315 320 325 316 315 318 322 318 316 332 353 333 329 332 331 309
262 266 270 273 270 269 269 270 271 274 277 278 275 274 276 277 277 279 282 287 284 283 284 292 297 302 306 306 304 304 314 316 315 303 306 315 310 306 312 332 309 315 321 323 317
259 260 264 268 272 271 273 275 276 277 276 275 274 274 277 278 277 278 280 283 284 287 287 289 289 295 292 293 294 292 302 310 321 295 288 303 301 301 305 319 302 304 307 307 306
259 259 261 265 266 266 270 271 276 278 277 281 279 278 276 277 278 286 280 279 282 286 287 285 284 286 285 280 279 286 292 295 313 307 297 287 294 291 291 307 295 295 294 294 297
259 260 259 263 261 264 267 270 275 274 276 275 274 273 275 272 274 275 276 277 278 279 282 284 283 287 284 285 283 284 287 280 290 305 289 282 284 288 298 300 286 289 290 288 288
254 261 261 264 263 266 268 268 270 276 274 272 271 264 268 269 273 265 270 272 271 273 273 276 277 275 278 277 274 278 277 279 269 270 278 282 275 276 295 287 280 283 284 283 281
266 259 254 260 261 261 266 265 270 275 268 267 265 269 269 275 275 274 273 268 268 274 273 272 271 271 268 274 274 269 275 278 272 268 256 266 280 272 287 292 280 277 273 280 285
271 265 269 264 263 262 263 265 268 273 268 270 264 268 273 277 279 283 283 276 273 276 279 276 270 272 273 268 269 265 275 276 280 273 270 272 266 277 280 282 282 278 275 277 277
274 274 274 276 270 265 265 268 270 274 273 267 269 264 267 275 277 279 285 287 274 281 280 280 279 269 274 266 265 266 268 268 270 280 281 278 250 265 274 277 276 277 277 274 276
274 274 275 274 272 271 270 271 270 273 272 272 264 264 269 267 272 278 283 284 280 284 283 280 278 283 274 271 264 266 267 259 264 270 282 282 259 260 271 274 276 277 276 274 275
271 273 276 275 275 274 270 268 272 272 275 278 272 267 267 266 273 274 279 285 283 286 284 282 283 284 283 285 279 274 264 256 262 263 267 279 263 261 268 272 270 271 274 275 273
270 269 273 271 274 273 272 272 272 272 274 274 280 274 270 269 272 278 278 280 283 286 288 285 286 285 285 285 282 276 270 269 266 267 270 267 264 256 266 274 272 271 272 270 268
266 269 270 271 269 273 271 273 275 271 271 277 280 278 274 272 272 277 277 279 282 281 285 293 286 290 287 287 285 286 279 273 266 266 268 271 267 261 262 266 272 273 273 274 272
272 273 275 273 270 271 272 271 270 274 266 268 276 284 279 271 270 274 278 276 278 282 282 285 288 288 292 289 284 282 283 280 271 265 265 280 268 264 263 270 271 271 272 273 276
275 275 273 273 275 275 272 267 267 271 266 261 266 276 278 277 276 279 278 279 273 273 279 278 285 284 286 287 291 290 283 278 276 274 275 267 263 269 271 263 268 271 269 273 272
277 274 276 271 272 277 278 273 270 272 267 266 266 269 271 274 280 278 272 268 273 279 278 279 277 283 286 286 286 288 292 289 281 271 277 274 268 269 272 272 275 278 278 267 263
279 279 281 282 282 286 283 279 280 283 277 280 282 274 276 276 285 294 290 283 267 270 275 281 280 280 281 287 285 285 288 290 291 283 279 283 291 283 286 284 280 287 293 289 269
283 284 284 284 285 289 290 289 290 292 287 280 285 290 284 286 279 285 289 287 281 278 276 280 282 283 283 280 288 282 285 287 285 284 284 281 290 288 283 285 291 290 288 287 285
279 285 287 286 285 286 288 291 293 290 288 281 281 288 293 289 286 282 285 287 286 282 280 280 282 280 283 283 286 288 284 280 284 286 286 284 282 284 287 279 281 280 283 285 284
279 281 282 282 284 286 288 286 286 284 285 285 287 284 286 288 285 285 288 287 283 282 284 287 286 285 282 281 286 280 280 281 282 282 279 281 284 281 274 274 277 282 282 282 282
276 278 280 281 281 282 284 281 282 282 282 284 285 287 282 281 284 285 286 285 282 282 283 284 285 284 284 284 283 283 281 282 281 280 281 280 275 268 268 274 272 276 280 279 279
272 274 277 277 277 279 281 280 282 281 280 280 279 279 279 279 279 279 282 282 280 281 283 282 282 283 280 278 279 278 280 280 280 280 279 280 278 270 262 268 272 271 273 275 276
273 275 277 276 277 276 276 275 278 275 275 276 275 275 278 276 277 277 277 276 277 278 280 279 278 279 278 276 277 276 277 277 274 274 273 270 272 269 267 272 271 261 263 266 270
270 271 275 275 276 276 273 275 276 276 274 273 276 276 276 277 276 274 275 275 275 277 276 276 276 276 276 275 274 272 274 273 271 269 268 268 269 270 271 272 273 271 267 264 263
273 273 273 277 276 278 277 278 277 278 278 277 277 278 278 277 277 278 279 280 279 278 276 278 278 277 277 277 276 274 273 273 273 273 272 270 268 268 267 270 269 270 269 269 270
271 273 275 275 275 276 278 278 280 279 279 280 280 280 279 279 279 280 279 280 279 279 279 280 280 278 278 279 279 279 279 279 275 275 275 272 271 271 271 270 269 270 270 270 270
274 274 276 277 276 275 277 278 278 278 278 279 278 278 278 279 279 279 279 278 279 280 279 280 280 281 282 280 279 281 282 276 276 276 275 275 274 274 273 272 272 272 271 271 273
Height
10822 10822 10823 10823 10824 10824 10824 10825 10825 10825 10824 10823 10823 10822 10821 10820 10820 10819 10817 10818 10817 10817 10816 10815 10814 10812 10811 10809 10808 10806 10805 10804 10801 10799 10797 10796 10794 10793 10792 10791 10788 10786 10784 10782 10781
10817 10817 10817 10818 10818 10818 10818 10819 10819 10819 10819 10819 10818 10816 10815 10814 10815 10814 10813 10813 10813 10812 10812 10811 10810 10808 10807 10806 10804 10802 10801 10801 10801 10799 10796 10794 10791 10790 10789 10789 10784 10784 10781 10779 10777
10810 10811 10811 10812 10813 10813 10813 10813 10813 10813 10814 10814 10813 10811 10810 10808 10809 10808 10808 10809 10809 10808 10807 10807 10806 10804 10803 10802 10801 10799 10798 10798 10797 10796 10794 10793 10789 10786 10785 10786 10780 10780 10778 10775 10774
10803 10804 10805 10806 10806 10807 10808 10808 10808 10808 10808 10807 10807 10805 10803 10801 10803 10804 10804 10803 10804 10804 10803 10802 10802 10801 10799 10797 10796 10795 10793 10793 10792 10792 10792 10791 10786 10780 10781 10783 10776 10774 10773 10770 10768
10795 10797 10798 10798 10799 10801 10801 10802 10802 10802 10802 10801 10801 10800 10798 10793 10798 10798 10797 10798 10798 10797 10797 10796 10796 10797 10794 10792 10792 10789 10788 10788 10788 10788 10787 10785 10782 10773 10777 10779 10772 10768 10766 10766 10764
10788 10789 10791 10792 10792 10794 10795 10795 10795 10796 10796 10795 10795 10793 10790 10784 10789 10792 10791 10790 10790 10790 10789 10790 10789 10790 10787 10785 10786 10783 10782 10781 10781 10783 10782 10782 10777 10771 10767 10773 10767 10763 10758 10757 10756
10781 10782 10782 10784 10785 10785 10787 10787 10788 10789 10788 10789 10789 10788 10784 10778 10780 10783 10784 10784 10783 10783 10783 10782 10781 10781 10779 10777 10779 10778 10778 10774 10771 10774 10777 10778 10771 10767 10765 10763 10760 10756 10752 10749 10747
10773 10774 10775 10775 10776 10778 10779 10779 10779 10780 10781 10781 10781 10782 10777 10771 10775 10774 10775 10776 10776 10775 10774 10774 10774 10773 10768 10767 10770 10769 10772 10770 10758 10762 10769 10771 10768 10755 10759 10757 10751 10747 10745 10743 10740
10763 10765 10766 10768 10769 10769 10770 10771 10772 10772 10773 10772 10772 10773 10769 10765 10764 10766 10767 10767 10767 10766 10765 10764 10766 10765 10760 10756 10762 10760 10763 10760 10758 10747 10758 10763 10762 10748 10748 10749 10743 10738 10735 10735 10735
10752 10754 10755 10757 10759 10760 10762 10762 10763 10764 10764 10764 10764 10762 10762 10758 10754 10754 10755 10756 10757 10757 10756 10755 10758 10757 10747 10746 10754 10752 10752 10751 10752 10738 10746 10752 10751 10747 10737 10740 10734 10729 10724 10725 10727
10742 10743 10743 10745 10747 10748 10750 10752 10754 10754 10753 10753 10753 10752 10750 10750 10747 10742 10740 10743 10745 10745 10744 10746 10747 10742 10738 10740 10742 10743 10743 10743 10738 10736 10742 10739 10741 10739 10731 10727 10722 10718 10714 10714 10713
10729 10730 10732 10733 10734 10735 10737 10739 10740 10743 10742 10740 10739 10740 10739 10738 10738 10731 10729 10730 10730 10731 10729 10732 10734 10727 10727 10725 10726 10730 10732 10734 10732 10728 10730 10732 10732 10726 10725 10716 10710 10706 10703 10701 10696
10716 10718 10719 10719 10721 10723 10725 10725 10726 10726 10731 10726 10726 10727 10726 10724 10724 10717 10716 10717 10716 10715 10713 10717 10718 10714 10712 10711 10709 10713 10716 10718 10721 10717 10719 10721 10724 10720 10711 10705 10701 10698 10687 10685 10685
10702 10702 10704 10704 10706 10709 10710 10712 10712 10712 10715 10716 10716 10710 10707 10706 10706 10704 10703 10703 10705 10704 10701 10705 10699 10699 10697 10696 10688 10702 10693 10699 10703 10705 10708 10706 10713 10706 10699 10695 10693 10684 10675 10676 10674
10686 10686 10687 10689 10690 10694 10697 10696 10698 10697 10702 10703 10703 10697 10692 10691 10690 10688 10686 10684 10687 10688 10688 10688 10686 10683 10681 10676 10673 10682 10679 10680 10682 10684 10691 10691 10691 10688 10682 10682 10675 10668 10670 10667 10664
10666 10668 10669 10670 10672 10676 10679 10680 10682 10683 10688 10684 10683 10679 10677 10678 10677 10675 10673 10671 10668 10668 10669 10667 10665 10665 10660 10656 10652 10655 10656 10660 10664 10661 10673 10670 10670 10675 10664 10664 10655 10654 10658 10657 10651
10645 10648 10649 10648 10649 10653 10657 10660 10664 10670 10668 10663 10655 10656 10660 10657 10654 10655 10653 10656 10648 10648 10646 10647 10647 10644 10638 10635 10631 10630 10631 10632 10633 10635 10646 10643 10651 10656 10639 10637 10634 10630 10633 10635 10630
10624 10626 10625 10624 10627 10630 10631 10636 10643 10646 10639 10630 10628 10636 10640 10633 10631 10627 10627 10635 10625 10619 10625 10624 10629 10614 10617 10611 10613 10608 10606 10602 10590 10605 10612 10615 10629 10626 10621 10610 10611 10602 10603 10610 10607
10601 10601 10600 10599 10604 10606 10607 10615 10619 10611 10609 10605 10603 10611 10613 10607 10603 10602 10603 10609 10602 10594 10584 10590 10605 10598 10589 10589 10587 10585 10583 10568 10561 10566 10563 10588 10600 10594 10598 10588 10576 10573 10575 10579 10580
10576 10578 10578 10574 10578 10578 10585 10596 10591 10579 10578 10580 10583 10585 10587 10577 10570 10571 10576 10587 10580 10569 10558 10551 10557 10575 10565 10563 10567 10550 10548 10548 10541 10528 10520 10541 10560 10573 10561 10553 10549 10541 10543 10548 10549
10552 10553 10558 10548 10551 10557 10566 10568 10561 10555 10552 10552 10553 10551 10555 10550 10546 10544 10553 10550 10548 10543 10538 10528 10520 10550 10532 10546 10533 10515 10511 10512 10503 10499 10488 10488 10509 10540 10523 10516 10518 10516 10508 10505 10509
10530 10534 10536 10533 10531 10534 10538 10535 10537 10536 10530 10525 10528 10527 10527 10524 10527 10522 10525 10518 10519 10515 10512 10502 10485 10491 10511 10513 10506 10496 10485 10478 10464 10468 10458 10443 10449 10475 10487 10480 10481 10484 10477 10472 10469
10499 10500 10505 10509 10511 10507 10510 10512 10508 10512 10505 10499 10498 10496 10493 10491 10489 10496 10493 10490 10483 10479 10477 10472 10464 10452 10458 10475 10469 10452 10449 10443 10433 10425 10427 10422 10412 10424 10433 10432 10440 10440 10439 10438 10439
10473 10472 10476 10474 10479 10477 10474 10481 10478 10475 10473 10465 10466 10461 10456 10456 10451 10462 10453 10453 10453 10443 10436 10425 10422 10419 10413 10419 10421 10417 10411 10410 10406 10391 10389 10382 10383 10388 10382 10369 10378 10390 10393 10396 10399
10441 10441 10443 10440 10442 10440 10438 10445 10441 10432 10430 10428 10431 10423 10417 10414 10409 10408 10405 10406 10407 10405 10396 10382 10373 10377 10376 10374 10366 10365 10365 10372 10371 10355 10338 10351 10340 10352 10338 10342 10336 10332 10338 10343 10346
10409 10408 10408 10408 10408 10407 10402 10410 10402 10394 10391 10391 10387 10381 10378 10373 10367 10372 10363 10363 10365 10362 10351 10345 10337 10331 10339 10336 10322 10322 10340 10343 10325 10317 10302 10301 10302 10297 10298 10300 10300 10298 10294 10293 10293
10376 10376 10373 10379 10375 10373 10375 10367 10366 10361 10356 10354 10351 10346 10341 10336 10332 10330 10328 10330 10327 10326 10320 10310 10302 10296 10294 10294 10282 10292 10315 10287 10283 10287 10268 10258 10260 10260 10260 10263 10263 10260 10256 10256 10255